Terug naar catalogus

STARLINK-6242

ActiefCommunicatieVLEO
NORAD 56424·PAYLOAD·🇺🇸 United States

Gelanceerd May 4, 2023 vanaf Cape Canaveral Space Force Station

Loading…

Volgende Passages (komende 24 uur)

TLE

VersSource: CelesTrak SupGP

Epoch: Sep 14, 2026, 22:02 UTC

1 56424C 23061BC  26257.91854167 -.00025581  00000+0 -92658-3 0  2578
2 56424  43.0005 191.0755 0001431 263.6718 240.0307 15.27589646    15

Volg STARLINK-6242 in realtime met AllMySat

Download on the App Store